Allentown, PA

9:15 PM EST on November 15, 2019 (GMT -0500)
Lehigh Valley International

Weather History for KABE - October, 2019

Change the Weather History Date:

Monday, October 14, 2019

  Actual Average Record
Temperature  
Mean Temperature 62 °F 53 °F  
Max Temperature 73 °F 64 °F 86 °F (1975)
Min Temperature 50 °F 42 °F 29 °F (1953)
Degree Days  
Heating Degree Days 3 12  
Month to date heating degree days 142  
Since 1 July heating degree days 257  
Cooling Degree Days 0 0  
Month to date cooling degree days 3  
Year to date cooling degree days 753  
Growing Degree Days 12 (Base 50)    
Moisture  
Dew Point 47 °F    
Average Humidity 66    
Maximum Humidity 90    
Minimum Humidity 32    
Precipitation  
Precipitation 0.00 in 0.13 in 2.21 in (1955)
Month to date precipitation 1.94  
Year to date precipitation 36.33  
Snow  
Snow - 0.00 in 0.00 in ()
Month to date snowfall 0.0  
Since 1 July snowfall 0.0  
Since 1 September snowfall 0.0  
Snow Depth -    
Sea Level Pressure  
Sea Level Pressure 29.98 in    
Wind  
Wind Speed 4 mph ()    
Max Wind Speed 15 mph    
Max Gust Speed 22 mph    
Visibility 9.8 miles    
Events      
T = Trace of Precipitation, MM = Missing Value Source: Averaged Metar Reports

Daily Weather History Graph

Daily Weather History Graph

Search for Another Location

Airport or City:

Astronomy

Oct. 14, 2019 Rise Set
Actual Time 7:11 AM EDT 6:23 PM EDT
Civil Twilight 6:44 AM EDT 6:50 PM EDT
Nautical Twilight 6:12 AM EDT 7:22 PM EDT
Astronomical Twilight 5:40 AM EDT 7:54 PM EDT
Moon 7:12 PM EDT (10/14) 7:40 AM EDT (10/14)
Length of Visible Light 12h 06m
Length of Day
11h 11m
Waxing Gibbous, 99% of the Moon is Illuminated
Oct 14
Waxing Gibbous
Oct 21
Last Quarter
Oct 27
New
Nov 4
First Quarter
Nov 12
Full

Hourly Weather History & Observations

Time (EDT) Temp. Dew Point Humidity Pressure Visibility Wind Dir Wind Speed Gust Speed Precip Events Conditions
12:51 AM 59.0 °F 52.0 °F 78% 30.00 in 10.0 mi South 3.5 mph - N/A   Mostly Cloudy
1:51 AM 59.0 °F 51.1 °F 75% 29.99 in 10.0 mi Calm Calm - N/A   Overcast
2:51 AM 59.0 °F 52.0 °F 78% 29.96 in 10.0 mi Calm Calm - N/A   Overcast
3:44 AM 55.9 °F 51.1 °F 84% 29.95 in 10.0 mi SSW 3.5 mph - N/A   Overcast
3:51 AM 55.9 °F 50.0 °F 80% 29.94 in 10.0 mi SW 3.5 mph - N/A   Mostly Cloudy
4:02 AM 53.6 °F 48.2 °F 82% 29.94 in 10.0 mi WSW 4.6 mph - N/A   Scattered Clouds
4:25 AM 54.0 °F 51.1 °F 90% 29.95 in 10.0 mi SW 3.5 mph - N/A   Mostly Cloudy
4:51 AM 53.1 °F 48.9 °F 86% 29.95 in 10.0 mi Calm Calm - N/A   Mostly Cloudy
5:24 AM 53.1 °F 50.0 °F 89% 29.96 in 9.0 mi West 3.5 mph - N/A   Overcast
5:51 AM 55.0 °F 51.1 °F 86% 29.98 in 10.0 mi SW 3.5 mph - N/A   Overcast
6:51 AM 55.0 °F 51.1 °F 86% 29.99 in 10.0 mi Calm Calm - N/A   Overcast
7:51 AM 55.9 °F 52.0 °F 87% 30.00 in 8.0 mi WSW 3.5 mph - N/A   Overcast
8:51 AM 57.9 °F 52.0 °F 81% 30.01 in 9.0 mi SW 4.6 mph - N/A   Mostly Cloudy
9:11 AM 60.1 °F 52.0 °F 75% 30.01 in 10.0 mi SW 3.5 mph - N/A   Scattered Clouds
9:34 AM 61.0 °F 52.0 °F 72% 30.01 in 9.0 mi WSW 6.9 mph - N/A   Mostly Cloudy
9:51 AM 61.0 °F 52.0 °F 72% 30.01 in 9.0 mi WSW 5.8 mph - N/A   Scattered Clouds
10:51 AM 64.0 °F 52.0 °F 65% 30.01 in - SW 8.1 mph - N/A   Unknown
11:51 AM 68.0 °F 46.9 °F 47% 29.99 in 10.0 mi West 6.9 mph - N/A   Clear
12:51 PM 71.1 °F 45.0 °F 39% 29.97 in 10.0 mi WSW 11.5 mph - N/A   Clear
1:51 PM 72.0 °F 43.0 °F 35% 29.95 in 10.0 mi WSW 15.0 mph 21.9 mph N/A   Clear
2:51 PM 72.0 °F 42.1 °F 34% 29.93 in 10.0 mi WSW 10.4 mph - 0.00 in   Clear
4:51 PM 71.1 °F 39.9 °F 32% 29.93 in 10.0 mi WSW 11.5 mph - N/A   Clear
5:51 PM 68.0 °F 39.9 °F 36% 29.94 in 10.0 mi West 8.1 mph - N/A   Clear
6:51 PM 64.0 °F 39.9 °F 41% 29.96 in 10.0 mi WSW 4.6 mph - N/A   Clear
7:51 PM 61.0 °F 41.0 °F 48% 29.99 in 10.0 mi West 3.5 mph - N/A   Clear
8:51 PM 57.0 °F 42.1 °F 57% 30.02 in 10.0 mi WSW 3.5 mph - N/A   Clear
9:51 PM 57.0 °F 39.9 °F 53% 30.04 in 10.0 mi WSW 3.5 mph - N/A   Clear
10:51 PM 52.0 °F 41.0 °F 66% 30.06 in 10.0 mi North 8.1 mph - N/A   Clear
11:51 PM 50.0 °F 39.9 °F 68% 30.07 in 10.0 mi North 5.8 mph - N/A   Clear